Regional Weather Roundup
Issued by NWS

Home | Current Version | Previous Version | Text Only | Print | Product List | Glossary On
Versions: 1 2 3 4 5 6 7 8 9 10 11 12 13 14 15 16 17 18 19 20 21 22 23 24 25 26 27 28 29 30 31 32 33 34 35 36 37 38 39 40 41 42 43 44 45 46 47 48 49 50
000
ASUS43 KFSD 230002
RWRSD

WEATHER ROUNDUP FOR SOUTH DAKOTA
NATIONAL WEATHER SERVICE SIOUX FALLS SD
700 PM CDT WED OCT 22 2014

NOTE: "FAIR" INDICATES FEW OR NO CLOUDS BELOW 12,000 FEET WITH NO
SIGNIFICANT WEATHER AND/OR OBSTRUCTIONS TO VISIBILITY.


SDZ001>005-009-010-012>017-230100-
NORTHWEST AND NORTH CENTRAL SOUTH DAKOTA

CITY           SKY/WX    TMP DP  RH WIND       PRES   REMARKS
FAITH            N/A     54  32  43 W8        29.97R
MOBRIDGE       CLEAR     59  38  45 W8        29.89R
$$

SDZ012>016-024>037-041>051-057-063-072>074-230100-
SOUTHWEST AND SOUTH CENTRAL SOUTH DAKOTA

CITY           SKY/WX    TMP DP  RH WIND       PRES   REMARKS
RAPID CTY ARPT CLEAR     55  34  45 NE6       30.00R
PIERRE         CLEAR     59  41  51 CALM      29.94R
CUSTER         CLEAR     48  24  39 W5        30.06R
PHILIP         CLEAR     55  33  43 NW7       29.98R
PINE RIDGE     CLEAR     54  32  43 SW5       30.02S
SPEARFISH      FAIR      54  28  37 SW5       30.02R
WINNER         FAIR      61  41  47 W6        30.00R
$$

SDZ004>011-016>023-039-040-230100-
NORTHEAST SOUTH DAKOTA

CITY           SKY/WX    TMP DP  RH WIND       PRES   REMARKS
ABERDEEN       CLOUDY    53  50  89 S5        29.94R
WATERTOWN      CLOUDY    55  53  93 W10       29.95R
SISSETON         N/A     57  54  89 W13       29.90R
$$

SDZ017-020-022-023-036>040-048>070-230100-
SOUTHEAST SOUTH DAKOTA

CITY           SKY/WX    TMP DP  RH WIND       PRES   REMARKS
SIOUX FALLS    CLOUDY    59  57  93 SW5       29.97R
HURON          MOCLDY    56  52  86 W7        29.97R
CHAMBERLAIN    PTCLDY    54  48  81 CALM      29.98R
MITCHELL       MOCLDY    57  54  89 SW3       29.99R
YANKTON        CLOUDY    57  54  88 W9        30.00R
$$

ABBREVIATIONS USED IN REMARKS
   TC - TEMPERATURE IN CELSIUS
  WCI - WIND CHILL INDEX
   HX - HEAT INDEX
  VSB - VISIBILITY




USA.gov is the U.S. government's official web portal to all federal, state and local government web resources and services.